Atka, AK

4:15 AM HDT on April 25, 2017 (GMT -0900)
Atka

Weather History for PAAK - January, 2013

Change the Weather History Date:

Friday, January 18, 2013

  Actual Average (PADK) Record (PADK)
Temperature  
Mean Temperature 32 °F -  
Max Temperature 39 °F 34 °F 46 °F (1962)
Min Temperature 26 °F 26 °F 13 °F (1986)
Degree Days  
Heating Degree Days 32    
Moisture  
Dew Point -15 °F    
Average Humidity 12    
Maximum Humidity 13    
Minimum Humidity 11    
Precipitation  
Precipitation 0.00 in - - ()
Sea Level Pressure  
Sea Level Pressure 29.60 in    
Wind  
Wind Speed 3 mph (WNW)    
Max Wind Speed 13 mph    
Max Gust Speed -    
Visibility 10 miles    
Events      
Averages and records for this station are not official NWS values.
T = Trace of Precipitation, MM = Missing Value Source: NWS Daily Summary

Daily Weather History Graph

Daily Weather History Graph

Search for Another Location

Airport or City:

Trip Planner

Search our weather history database for the weather conditions in past years. The results will help you decide how hot, cold, wet, or windy it might be!

Date:

Astronomy

Jan. 18, 2013 Rise Set
Actual Time 9:35 AM HST 6:00 PM HST
Civil Twilight 8:56 AM HST 6:38 PM HST
Nautical Twilight 8:14 AM HST 7:21 PM HST
Astronomical Twilight 7:34 AM HST 8:01 PM HST
Moon 12:16 PM HST (1/18) 2:06 AM HST (1/18)
Length of Visible Light 9h 42m
Length of Day
8h 24m
Waxing Crescent, 49% of the Moon is Illuminated
Jan 18
Waxing Crescent
Jan 18
First Quarter
Jan 26
Full
Feb 3
Last Quarter
Feb 9
New

Hourly Weather History & Observations

Time (HST) Temp. Windchill Dew Point Humidity Pressure Visibility Wind Dir Wind Speed Gust Speed Precip Events Conditions
12:16 AM 33.8 °F 30.8 °F -14.8 °F 12% 29.58 in 10.0 mi NNW 3.5 mph - N/A   Overcast
12:36 AM 33.8 °F - -14.8 °F 12% 29.59 in 10.0 mi Calm Calm - N/A   Overcast
12:56 AM 33.8 °F - -14.8 °F 12% 29.59 in 10.0 mi Calm Calm - N/A   Scattered Clouds
1:16 AM 30.2 °F - -16.6 °F 13% 29.59 in 10.0 mi Calm Calm - N/A   Scattered Clouds
1:36 AM 30.2 °F - -16.6 °F 13% 29.59 in 10.0 mi Calm Calm - N/A   Partly Cloudy
1:56 AM 30.2 °F - -16.6 °F 13% 29.60 in 10.0 mi Calm Calm - N/A   Partly Cloudy
2:16 AM 30.2 °F - -16.6 °F 13% 29.60 in 10.0 mi Calm Calm - N/A   Mostly Cloudy
2:36 AM 28.4 °F - -18.4 °F 12% 29.60 in 10.0 mi Calm Calm - N/A   Scattered Clouds
2:56 AM 28.4 °F - -18.4 °F 12% 29.61 in 10.0 mi Calm Calm - N/A   Partly Cloudy
3:16 AM 28.4 °F - -18.4 °F 12% 29.61 in 10.0 mi Calm Calm - N/A   Partly Cloudy
3:36 AM 28.4 °F 24.6 °F -18.4 °F 12% 29.61 in 10.0 mi North 3.5 mph - N/A   Clear
3:56 AM 28.4 °F - -18.4 °F 12% 29.62 in 10.0 mi Calm Calm - N/A   Clear
4:16 AM 28.4 °F - -18.4 °F 12% 29.62 in 10.0 mi Calm Calm - N/A   Clear
4:36 AM 28.4 °F - -18.4 °F 12% 29.62 in 10.0 mi Calm Calm - N/A   Mostly Cloudy
4:56 AM 28.4 °F - -18.4 °F 12% 29.62 in 10.0 mi Calm Calm - N/A   Overcast
5:16 AM 28.4 °F - -18.4 °F 12% 29.63 in 8.0 mi Calm Calm - N/A   Mostly Cloudy
5:36 AM 28.4 °F - -18.4 °F 12% 29.63 in 10.0 mi Calm Calm - N/A   Mostly Cloudy
5:56 AM 30.2 °F - -16.6 °F 13% 29.63 in 10.0 mi Calm Calm - N/A   Mostly Cloudy
6:16 AM 30.2 °F - -16.6 °F 13% 29.63 in 10.0 mi Calm Calm - N/A   Overcast
6:36 AM 30.2 °F - -16.6 °F 13% 29.63 in 10.0 mi Calm Calm - N/A   Mostly Cloudy
6:56 AM 28.4 °F - -18.4 °F 12% 29.63 in 10.0 mi Calm Calm - N/A   Mostly Cloudy
7:16 AM 28.4 °F 24.6 °F -18.4 °F 12% 29.63 in 10.0 mi North 3.5 mph - N/A   Partly Cloudy
7:36 AM 26.6 °F - -18.4 °F 13% 29.63 in 10.0 mi Calm Calm - N/A   Clear
7:56 AM 28.4 °F - -18.4 °F 12% 29.64 in 10.0 mi Calm Calm - N/A   Mostly Cloudy
8:16 AM 28.4 °F 24.6 °F -18.4 °F 12% 29.64 in 10.0 mi North 3.5 mph - N/A   Scattered Clouds
8:36 AM 28.4 °F - -18.4 °F 12% 29.65 in 10.0 mi Calm Calm - N/A   Partly Cloudy
8:56 AM 30.2 °F 25.4 °F -16.6 °F 13% 29.65 in 10.0 mi WNW 4.6 mph - N/A   Partly Cloudy
9:16 AM 30.2 °F 24.3 °F -16.6 °F 13% 29.66 in 10.0 mi WNW 5.8 mph - N/A   Mostly Cloudy
9:36 AM 32.0 °F 24.8 °F -16.6 °F 12% 29.66 in 10.0 mi WNW 8.1 mph - N/A   Overcast
9:56 AM 33.8 °F 25.3 °F -14.8 °F 12% 29.66 in 10.0 mi West 11.5 mph - N/A   Mostly Cloudy
10:16 AM 33.8 °F 27.7 °F -14.8 °F 12% 29.67 in 10.0 mi WNW 6.9 mph - N/A   Overcast
10:36 AM 35.6 °F 28.6 °F - N/A% 29.67 in 10.0 mi WNW 9.2 mph - N/A   Overcast
10:56 AM 35.6 °F 28.6 °F -13.0 °F 12% 29.67 in 10.0 mi West 9.2 mph - N/A   Overcast
11:16 AM 35.6 °F 29.2 °F -13.0 °F 12% 29.67 in 10.0 mi WNW 8.1 mph - N/A   Overcast
11:36 AM 35.6 °F 29.2 °F -13.0 °F 12% 29.67 in 10.0 mi West 8.1 mph - N/A   Mostly Cloudy
11:56 AM 35.6 °F 28.0 °F -13.0 °F 12% 29.67 in 10.0 mi West 10.4 mph - N/A   Mostly Cloudy
12:16 PM 37.4 °F 32.1 °F -11.2 °F 12% 29.66 in 10.0 mi WNW 6.9 mph - N/A   Overcast
12:36 PM 37.4 °F 31.4 °F -11.2 °F 12% 29.65 in 10.0 mi WNW 8.1 mph - N/A   Overcast
12:56 PM 37.4 °F 31.4 °F -11.2 °F 12% 29.65 in 10.0 mi WNW 8.1 mph - N/A   Overcast
1:16 PM 37.4 °F 31.4 °F -11.2 °F 12% 29.64 in 10.0 mi WNW 8.1 mph - N/A   Overcast
1:36 PM 37.4 °F 30.8 °F -11.2 °F 12% 29.64 in 10.0 mi WNW 9.2 mph - N/A   Overcast
1:56 PM 37.4 °F 29.8 °F -11.2 °F 12% 29.63 in 10.0 mi West 11.5 mph - N/A   Overcast
2:16 PM 37.4 °F 29.3 °F -11.2 °F 12% 29.63 in 10.0 mi West 12.7 mph - N/A   Mostly Cloudy
2:36 PM 37.4 °F 29.8 °F -11.2 °F 12% 29.62 in 10.0 mi WNW 11.5 mph - N/A   Scattered Clouds
2:56 PM 37.4 °F 30.8 °F -11.2 °F 12% 29.62 in 10.0 mi West 9.2 mph - N/A   Partly Cloudy
3:16 PM 39.2 °F 34.2 °F -11.2 °F 11% 29.61 in 10.0 mi WNW 6.9 mph - N/A   Scattered Clouds
3:36 PM 37.4 °F 32.8 °F -11.2 °F 12% 29.61 in 10.0 mi West 5.8 mph - N/A   Mostly Cloudy
3:56 PM 37.4 °F 33.8 °F -11.2 °F 12% 29.61 in 10.0 mi West 4.6 mph - N/A   Overcast
4:16 PM 37.4 °F 34.9 °F -11.2 °F 12% 29.60 in 10.0 mi NW 3.5 mph - N/A   Overcast
4:36 PM 35.6 °F 32.8 °F -13.0 °F 12% 29.60 in 10.0 mi WNW 3.5 mph - N/A   Mostly Cloudy
4:56 PM 35.6 °F 29.9 °F -14.8 °F 11% 29.60 in 10.0 mi West 6.9 mph - N/A   Mostly Cloudy
5:16 PM 35.6 °F - -13.0 °F 12% 29.60 in 10.0 mi Calm Calm - N/A   Overcast
5:36 PM 35.6 °F - -13.0 °F 12% 29.59 in 10.0 mi Calm Calm - N/A   Overcast
5:56 PM 35.6 °F 32.8 °F -14.8 °F 11% 29.59 in 10.0 mi ESE 3.5 mph - N/A   Overcast
6:16 PM 35.6 °F - -14.8 °F 11% 29.59 in 10.0 mi Calm Calm - N/A   Overcast
6:36 PM 33.8 °F - -14.8 °F 12% 29.59 in 10.0 mi Calm Calm - N/A   Overcast
6:56 PM 33.8 °F - -14.8 °F 12% 29.58 in 10.0 mi Calm Calm - N/A   Overcast
7:16 PM 33.8 °F 30.8 °F -14.8 °F 12% 29.57 in 10.0 mi SW 3.5 mph - N/A   Overcast
7:36 PM 33.8 °F - -14.8 °F 12% 29.57 in 10.0 mi Calm Calm - N/A   Overcast
7:56 PM 32.0 °F - -16.6 °F 12% 29.57 in 10.0 mi Calm Calm - N/A   Mostly Cloudy
8:16 PM 30.2 °F 25.4 °F -16.6 °F 13% 29.57 in 10.0 mi NW 4.6 mph - N/A   Partly Cloudy
8:36 PM 30.2 °F 22.6 °F -16.6 °F 13% 29.55 in 10.0 mi NW 8.1 mph - N/A   Clear
8:56 PM 30.2 °F 23.4 °F -16.6 °F 13% 29.54 in 10.0 mi WNW 6.9 mph - N/A   Clear
9:16 PM 30.2 °F 21.9 °F -16.6 °F 13% 29.54 in 10.0 mi NNW 9.2 mph - N/A   Clear
9:36 PM 30.2 °F 21.3 °F -16.6 °F 13% 29.53 in 10.0 mi WNW 10.4 mph - N/A   Clear
9:56 PM 30.2 °F 21.3 °F -16.6 °F 13% 29.53 in 10.0 mi WNW 10.4 mph - N/A   Clear
10:16 PM 30.2 °F 21.9 °F -16.6 °F 13% 29.51 in 10.0 mi WNW 9.2 mph - N/A   Clear
10:36 PM 30.2 °F 21.3 °F -16.6 °F 13% 29.49 in 10.0 mi NW 10.4 mph - N/A   Clear
10:56 PM 30.2 °F 21.9 °F -16.6 °F 13% 29.49 in 10.0 mi WNW 9.2 mph - N/A   Clear
11:16 PM 30.2 °F 21.9 °F -16.6 °F 13% 29.48 in 10.0 mi WNW 9.2 mph - N/A   Clear
11:36 PM 30.2 °F 21.3 °F -16.6 °F 13% 29.46 in 10.0 mi NNW 10.4 mph - N/A   Clear
11:56 PM 30.2 °F 20.2 °F -16.6 °F 13% 29.45 in 10.0 mi NW 12.7 mph - N/A   Clear